Time,TemperatureF,DewpointF,PressureIn,WindDirection,WindDirectionDegrees,WindSpeedMPH,WindSpeedGustMPH,Humidity,HourlyPrecipIn,Conditions,Clouds,dailyrainin,SoftwareType,DateUTC
2013-06-22 00:01:00,66.6,60.0,30.28,North,0,0.0,0.0,79,0.00,,,0.00,WUHU216HW,2013-06-22 04:01:00,
2013-06-22 00:02:00,66.6,60.0,30.28,North,0,0.0,0.0,79,0.00,,,0.00,WUHU216HW,2013-06-22 04:02:00,
2013-06-22 00:03:00,66.4,60.1,30.28,NNE,23,0.0,0.0,80,0.00,,,0.00,WUHU216HW,2013-06-22 04:03:00,
2013-06-22 00:08:00,66.2,59.9,30.28,North,0,0.0,0.0,80,0.00,,,0.00,WUHU216HW,2013-06-22 04:08:00,
2013-06-22 00:13:00,66.2,59.9,30.28,North,7,0.7,1.1,80,0.00,,,0.00,WUHU216HW,2013-06-22 04:13:00,
2013-06-22 00:18:00,66.4,60.5,30.28,NNE,23,0.9,1.1,81,0.00,,,0.00,WUHU216HW,2013-06-22 04:18:00,
2013-06-22 00:23:00,66.4,60.8,30.28,NNE,23,1.1,1.1,82,0.00,,,0.00,WUHU216HW,2013-06-22 04:23:00,
2013-06-22 00:28:00,66.6,60.7,30.28,North,0,1.1,1.1,81,0.00,,,0.00,WUHU216HW,2013-06-22 04:28:00,
2013-06-22 00:33:00,66.6,60.7,30.28,NNE,23,1.1,1.1,81,0.00,,,0.00,WUHU216HW,2013-06-22 04:33:00,
2013-06-22 00:38:00,66.6,60.7,30.28,NNE,23,0.9,1.1,81,0.00,,,0.00,WUHU216HW,2013-06-22 04:38:00,
2013-06-22 00:43:00,66.6,60.7,30.28,NE,45,0.7,1.1,81,0.00,,,0.00,WUHU216HW,2013-06-22 04:43:00,
2013-06-22 00:48:00,66.2,60.3,30.28,NE,45,1.1,1.1,81,0.00,,,0.00,WUHU216HW,2013-06-22 04:48:00,
2013-06-22 00:53:00,66.2,60.3,30.28,NNE,23,1.1,1.1,81,0.00,,,0.00,WUHU216HW,2013-06-22 04:53:00,
2013-06-22 00:58:00,66.2,60.6,30.28,NNE,23,2.0,2.0,82,0.00,,,0.00,WUHU216HW,2013-06-22 04:58:00,
2013-06-22 01:03:00,66.1,60.4,30.28,North,0,0.9,2.0,82,0.00,,,0.00,WUHU216HW,2013-06-22 05:03:00,
2013-06-22 01:09:00,65.9,60.2,30.28,North,0,0.6,2.0,82,0.00,,,0.00,WUHU216HW,2013-06-22 05:09:00,
2013-06-22 01:14:00,65.9,60.2,30.28,NNE,23,0.9,0.9,82,0.00,,,0.00,WUHU216HW,2013-06-22 05:14:00,
2013-06-22 01:19:00,65.7,60.0,30.28,North,0,1.1,1.1,82,0.00,,,0.00,WUHU216HW,2013-06-22 05:19:00,
2013-06-22 01:24:00,65.3,60.0,30.28,NNE,12,0.8,1.1,83,0.00,,,0.00,WUHU216HW,2013-06-22 05:24:00,
2013-06-22 01:29:00,65.3,60.0,30.28,NNE,23,1.1,1.1,83,0.00,,,0.00,WUHU216HW,2013-06-22 05:29:00,
2013-06-22 01:34:00,65.2,60.2,30.27,NNE,12,1.2,1.3,84,0.00,,,0.00,WUHU216HW,2013-06-22 05:34:00,
2013-06-22 01:39:00,65.2,60.2,30.28,North,0,0.9,1.8,84,0.00,,,0.00,WUHU216HW,2013-06-22 05:39:00,
2013-06-22 01:44:00,65.3,60.4,30.27,NNE,23,1.8,1.8,84,0.00,,,0.00,WUHU216HW,2013-06-22 05:44:00,
2013-06-22 01:49:00,65.5,60.6,30.27,NNE,23,1.5,1.8,84,0.00,,,0.00,WUHU216HW,2013-06-22 05:49:00,
2013-06-22 01:54:00,65.3,60.4,30.27,NNE,23,1.1,1.8,84,0.00,,,0.00,WUHU216HW,2013-06-22 05:54:00,
2013-06-22 01:59:00,65.3,60.4,30.27,NNE,23,1.6,1.6,84,0.00,,,0.00,WUHU216HW,2013-06-22 05:59:00,
2013-06-22 02:04:00,65.3,60.0,30.27,NNE,23,0.7,1.6,83,0.00,,,0.00,WUHU216HW,2013-06-22 06:04:00,
2013-06-22 02:09:00,65.0,60.0,30.27,NNE,23,1.1,1.6,84,0.00,,,0.00,WUHU216HW,2013-06-22 06:09:00,
2013-06-22 02:14:00,65.0,60.0,30.27,North,0,1.1,1.1,84,0.00,,,0.00,WUHU216HW,2013-06-22 06:14:00,
2013-06-22 02:19:00,64.8,59.9,30.28,North,0,0.4,1.1,84,0.00,,,0.00,WUHU216HW,2013-06-22 06:19:00,
2013-06-22 02:24:00,64.6,59.3,30.28,North,9,1.0,1.1,83,0.00,,,0.00,WUHU216HW,2013-06-22 06:24:00,
2013-06-22 02:29:00,64.4,59.1,30.28,North,0,1.8,1.8,83,0.00,,,0.00,WUHU216HW,2013-06-22 06:29:00,
2013-06-22 02:34:00,64.4,59.9,30.28,NE,45,1.1,1.8,85,0.00,,,0.00,WUHU216HW,2013-06-22 06:34:00,
2013-06-22 02:40:00,64.4,59.5,30.27,North,0,1.3,1.8,84,0.00,,,0.00,WUHU216HW,2013-06-22 06:40:00,
2013-06-22 02:45:00,64.4,59.5,30.27,North,0,0.7,1.3,84,0.00,,,0.00,WUHU216HW,2013-06-22 06:45:00,
2013-06-22 02:50:00,64.1,59.1,30.27,North,0,1.3,1.3,84,0.00,,,0.00,WUHU216HW,2013-06-22 06:50:00,
2013-06-22 02:55:00,64.1,59.1,30.27,North,0,0.9,1.3,84,0.00,,,0.00,WUHU216HW,2013-06-22 06:55:00,
2013-06-22 03:00:00,64.1,59.5,30.27,NNE,23,0.4,1.3,85,0.00,,,0.00,WUHU216HW,2013-06-22 07:00:00,
2013-06-22 03:05:00,63.7,58.8,30.27,North,0,0.7,0.9,84,0.00,,,0.00,WUHU216HW,2013-06-22 07:05:00,
2013-06-22 03:10:00,63.7,59.1,30.27,North,0,0.9,0.9,85,0.00,,,0.00,WUHU216HW,2013-06-22 07:10:00,
2013-06-22 03:15:00,63.5,59.0,30.27,NNE,23,0.7,0.9,85,0.00,,,0.00,WUHU216HW,2013-06-22 07:15:00,
2013-06-22 03:20:00,63.5,59.0,30.27,NNE,23,0.7,0.9,85,0.00,,,0.00,WUHU216HW,2013-06-22 07:20:00,
2013-06-22 03:25:00,63.4,59.1,30.26,North,10,0.9,1.1,86,0.00,,,0.00,WUHU216HW,2013-06-22 07:25:00,
2013-06-22 03:30:00,63.5,59.0,30.27,North,0,0.9,1.1,85,0.00,,,0.00,WUHU216HW,2013-06-22 07:30:00,
2013-06-22 03:35:00,63.5,59.3,30.27,NNE,23,0.4,0.9,86,0.00,,,0.00,WUHU216HW,2013-06-22 07:35:00,
2013-06-22 03:40:00,63.5,59.3,30.27,NE,45,1.1,1.1,86,0.00,,,0.00,WUHU216HW,2013-06-22 07:40:00,
2013-06-22 03:45:00,63.5,59.3,30.26,NNE,23,1.1,1.1,86,0.00,,,0.00,WUHU216HW,2013-06-22 07:45:00,
2013-06-22 03:50:00,63.5,59.3,30.26,NE,45,0.9,1.1,86,0.00,,,0.00,WUHU216HW,2013-06-22 07:50:00,
2013-06-22 03:55:00,63.4,59.1,30.26,North,0,0.4,1.1,86,0.00,,,0.00,WUHU216HW,2013-06-22 07:55:00,
2013-06-22 04:00:00,63.2,58.6,30.26,North,0,0.7,1.3,85,0.00,,,0.00,WUHU216HW,2013-06-22 08:00:00,
2013-06-22 04:06:00,63.0,58.8,30.26,North,0,0.9,1.3,86,0.00,,,0.00,WUHU216HW,2013-06-22 08:06:00,
2013-06-22 04:11:00,63.0,59.1,30.26,NNW,338,1.1,1.1,87,0.00,,,0.00,WUHU216HW,2013-06-22 08:11:00,
2013-06-22 04:16:00,63.0,58.8,30.26,North,0,0.7,1.1,86,0.00,,,0.00,WUHU216HW,2013-06-22 08:16:00,
2013-06-22 04:21:00,62.8,58.6,30.26,NNE,23,1.0,1.1,86,0.00,,,0.00,WUHU216HW,2013-06-22 08:21:00,
2013-06-22 04:26:00,62.8,58.6,30.26,North,0,0.4,1.1,86,0.00,,,0.00,WUHU216HW,2013-06-22 08:26:00,
2013-06-22 04:31:00,62.6,58.4,30.26,NW,315,0.4,0.9,86,0.00,,,0.00,WUHU216HW,2013-06-22 08:31:00,
2013-06-22 04:36:00,62.6,58.4,30.26,North,0,0.2,0.4,86,0.00,,,0.00,WUHU216HW,2013-06-22 08:36:00,
2013-06-22 04:41:00,62.5,58.2,30.26,NNE,23,0.0,0.4,86,0.00,,,0.00,WUHU216HW,2013-06-22 08:41:00,
2013-06-22 04:46:00,62.3,58.1,30.26,North,0,0.7,0.7,86,0.00,,,0.00,WUHU216HW,2013-06-22 08:46:00,
2013-06-22 04:51:00,62.3,58.1,30.26,NNE,23,0.0,0.7,86,0.00,,,0.00,WUHU216HW,2013-06-22 08:51:00,
2013-06-22 04:57:00,62.3,58.4,30.26,NNE,23,1.6,1.6,87,0.00,,,0.00,WUHU216HW,2013-06-22 08:57:00,
2013-06-22 05:02:00,62.3,58.4,30.27,North,5,1.2,1.6,87,0.00,,,0.00,WUHU216HW,2013-06-22 09:02:00,
2013-06-22 05:07:00,62.5,58.9,30.27,NNE,23,2.0,2.0,88,0.00,,,0.00,WUHU216HW,2013-06-22 09:07:00,
2013-06-22 05:12:00,62.5,58.9,30.27,North,0,2.9,2.9,88,0.00,,,0.00,WUHU216HW,2013-06-22 09:12:00,
2013-06-22 05:17:00,62.6,58.8,30.27,NNW,338,0.4,2.9,87,0.00,,,0.00,WUHU216HW,2013-06-22 09:17:00,
2013-06-22 05:22:00,62.8,59.0,30.27,North,351,1.7,2.9,87,0.00,,,0.00,WUHU216HW,2013-06-22 09:22:00,
2013-06-22 05:27:00,62.8,59.2,30.27,NNE,30,1.7,2.5,88,0.00,,,0.00,WUHU216HW,2013-06-22 09:27:00,
2013-06-22 05:32:00,63.0,59.1,30.27,NNE,23,1.1,1.8,87,0.00,,,0.00,WUHU216HW,2013-06-22 09:32:00,
2013-06-22 05:37:00,63.0,59.1,30.27,NNW,338,1.6,1.6,87,0.00,,,0.00,WUHU216HW,2013-06-22 09:37:00,
2013-06-22 05:42:00,63.2,59.3,30.28,North,358,2.4,2.7,87,0.00,,,0.00,WUHU216HW,2013-06-22 09:42:00,
2013-06-22 05:47:00,63.2,59.3,30.28,NNW,338,1.1,2.7,87,0.00,,,0.00,WUHU216HW,2013-06-22 09:47:00,
2013-06-22 05:52:00,63.0,58.8,30.28,North,0,0.9,2.5,86,0.00,,,0.00,WUHU216HW,2013-06-22 09:52:00,
2013-06-22 05:57:00,62.8,58.6,30.28,NNW,338,1.3,2.5,86,0.00,,,0.00,WUHU216HW,2013-06-22 09:57:00,
2013-06-22 06:02:00,62.8,58.6,30.28,North,351,0.8,1.3,86,0.00,,,0.00,WUHU216HW,2013-06-22 10:02:00,
2013-06-22 06:07:00,62.8,59.0,30.28,NNW,338,1.3,1.3,87,0.00,,,0.00,WUHU216HW,2013-06-22 10:07:00,
2013-06-22 06:12:00,62.8,58.6,30.28,NE,45,1.1,1.3,86,0.00,,,0.00,WUHU216HW,2013-06-22 10:12:00,
2013-06-22 06:17:00,62.8,58.6,30.28,NNE,21,1.0,1.3,86,0.00,,,0.00,WUHU216HW,2013-06-22 10:17:00,
2013-06-22 06:22:00,62.6,58.8,30.28,North,0,2.2,2.2,87,0.00,,,0.00,WUHU216HW,2013-06-22 10:22:00,
2013-06-22 06:27:00,62.6,58.4,30.29,NNW,344,0.5,2.2,86,0.00,,,0.00,WUHU216HW,2013-06-22 10:27:00,
2013-06-22 06:32:00,62.5,58.2,30.29,NNW,338,0.0,2.2,86,0.00,,,0.00,WUHU216HW,2013-06-22 10:32:00,
2013-06-22 06:37:00,62.3,58.1,30.29,NNW,338,1.1,1.1,86,0.00,,,0.00,WUHU216HW,2013-06-22 10:37:00,
2013-06-22 06:42:00,62.5,58.2,30.29,North,351,0.8,1.1,86,0.00,,,0.00,WUHU216HW,2013-06-22 10:42:00,
2013-06-22 06:47:00,62.5,58.2,30.29,North,0,0.7,1.1,86,0.00,,,0.00,WUHU216HW,2013-06-22 10:47:00,
2013-06-22 06:52:00,62.6,58.8,30.29,North,0,1.3,1.3,87,0.00,,,0.00,WUHU216HW,2013-06-22 10:52:00,
2013-06-22 06:57:00,63.0,59.1,30.29,North,0,1.1,1.3,87,0.00,,,0.00,WUHU216HW,2013-06-22 10:57:00,
2013-06-22 07:02:00,63.4,59.1,30.29,ENE,68,1.1,1.3,86,0.00,,,0.00,WUHU216HW,2013-06-22 11:02:00,
2013-06-22 07:07:00,63.7,59.5,30.29,NNW,338,2.2,2.2,86,0.00,,,0.00,WUHU216HW,2013-06-22 11:07:00,
2013-06-22 07:13:00,63.7,59.1,30.29,NNE,19,0.6,2.2,85,0.00,,,0.00,WUHU216HW,2013-06-22 11:13:00,
2013-06-22 07:18:00,63.9,59.3,30.30,North,0,2.5,2.5,85,0.00,,,0.00,WUHU216HW,2013-06-22 11:18:00,
2013-06-22 07:23:00,64.1,59.5,30.30,SW,225,0.7,2.5,85,0.00,,,0.00,WUHU216HW,2013-06-22 11:23:00,
2013-06-22 07:28:00,64.3,59.7,30.30,NNE,23,2.2,2.5,85,0.00,,,0.00,WUHU216HW,2013-06-22 11:28:00,
2013-06-22 07:33:00,64.4,59.5,30.30,North,0,1.6,2.2,84,0.00,,,0.00,WUHU216HW,2013-06-22 11:33:00,
2013-06-22 07:38:00,64.8,60.2,30.30,ENE,68,1.1,2.2,85,0.00,,,0.00,WUHU216HW,2013-06-22 11:38:00,
2013-06-22 07:43:00,64.8,59.9,30.30,North,0,2.2,2.2,84,0.00,,,0.00,WUHU216HW,2013-06-22 11:43:00,
2013-06-22 07:48:00,65.0,60.0,30.30,NW,315,0.9,2.2,84,0.00,,,0.00,WUHU216HW,2013-06-22 11:48:00,
2013-06-22 07:53:00,65.5,60.2,30.30,North,0,2.7,2.7,83,0.00,,,0.00,WUHU216HW,2013-06-22 11:53:00,
2013-06-22 07:58:00,65.7,60.0,30.30,North,0,4.0,4.0,82,0.00,,,0.00,WUHU216HW,2013-06-22 11:58:00,
2013-06-22 08:03:00,66.1,60.4,30.30,NW,315,0.4,4.0,82,0.00,,,0.00,WUHU216HW,2013-06-22 12:03:00,
2013-06-22 08:08:00,69.7,63.2,30.30,North,0,3.4,4.0,80,0.00,,,0.00,WUHU216HW,2013-06-22 12:08:00,
2013-06-22 08:13:00,71.1,62.4,30.30,NNE,23,4.7,4.7,74,0.00,,,0.00,WUHU216HW,2013-06-22 12:13:00,
2013-06-22 08:18:00,72.4,62.8,30.30,ENE,58,2.3,4.7,72,0.00,,,0.00,WUHU216HW,2013-06-22 12:18:00,
2013-06-22 08:23:00,73.8,63.9,30.30,North,0,0.4,4.7,71,0.00,,,0.00,WUHU216HW,2013-06-22 12:23:00,
2013-06-22 08:28:00,75.6,63.8,30.30,ESE,111,3.4,3.4,67,0.00,,,0.00,WUHU216HW,2013-06-22 12:28:00,
2013-06-22 08:33:00,76.3,65.0,30.30,NNE,21,2.9,3.4,68,0.00,,,0.00,WUHU216HW,2013-06-22 12:33:00,
2013-06-22 08:38:00,76.5,64.7,30.30,ENE,68,0.4,3.1,67,0.00,,,0.00,WUHU216HW,2013-06-22 12:38:00,
2013-06-22 08:43:00,76.7,64.9,30.30,North,0,1.1,2.7,67,0.00,,,0.00,WUHU216HW,2013-06-22 12:43:00,
2013-06-22 08:48:00,78.1,65.8,30.29,NNW,338,1.1,1.1,66,0.00,,,0.00,WUHU216HW,2013-06-22 12:48:00,
2013-06-22 08:53:00,78.1,65.8,30.29,NE,45,0.7,1.1,66,0.00,,,0.00,WUHU216HW,2013-06-22 12:53:00,
2013-06-22 08:58:00,77.8,65.9,30.29,NNW,338,1.1,1.1,67,0.00,,,0.00,WUHU216HW,2013-06-22 12:58:00,
2013-06-22 09:03:00,77.9,66.1,30.29,NE,45,3.1,3.1,67,0.00,,,0.00,WUHU216HW,2013-06-22 13:03:00,
2013-06-22 09:08:00,77.8,65.5,30.30,NNE,28,1.8,3.1,66,0.00,,,0.00,WUHU216HW,2013-06-22 13:08:00,
2013-06-22 09:13:00,77.0,64.8,30.30,ESE,122,0.3,3.1,66,0.00,,,0.00,WUHU216HW,2013-06-22 13:13:00,
2013-06-22 09:18:00,76.5,64.7,30.30,North,0,1.6,1.6,67,0.00,,,0.00,WUHU216HW,2013-06-22 13:18:00,
2013-06-22 09:23:00,76.0,64.2,30.30,NE,45,5.1,5.1,67,0.00,,,0.00,WUHU216HW,2013-06-22 13:23:00,
2013-06-22 09:28:00,75.1,64.6,30.30,North,0,1.8,5.1,70,0.00,,,0.00,WUHU216HW,2013-06-22 13:28:00,
2013-06-22 09:33:00,75.2,65.2,30.30,North,0,0.9,5.1,71,0.00,,,0.00,WUHU216HW,2013-06-22 13:33:00,
2013-06-22 09:39:00,75.4,65.3,30.30,North,0,2.0,2.0,71,0.00,,,0.00,WUHU216HW,2013-06-22 13:39:00,
2013-06-22 09:44:00,75.4,65.0,30.30,NNW,338,3.1,3.1,70,0.00,,,0.00,WUHU216HW,2013-06-22 13:44:00,
2013-06-22 09:49:00,75.2,65.6,30.30,East,94,1.2,3.1,72,0.00,,,0.00,WUHU216HW,2013-06-22 13:49:00,
2013-06-22 09:54:00,75.6,65.5,30.30,SSE,158,0.9,1.3,71,0.00,,,0.00,WUHU216HW,2013-06-22 13:54:00,
2013-06-22 09:59:00,76.0,66.3,30.30,NW,315,3.8,3.8,72,0.00,,,0.00,WUHU216HW,2013-06-22 13:59:00,
2013-06-22 10:04:00,76.1,66.1,30.30,NE,45,1.8,3.8,71,0.00,,,0.00,WUHU216HW,2013-06-22 14:04:00,
2013-06-22 10:09:00,76.3,66.2,30.30,NNE,23,4.7,4.7,71,0.00,,,0.00,WUHU216HW,2013-06-22 14:09:00,
2013-06-22 10:14:00,76.0,65.9,30.30,NNW,343,4.1,4.7,71,0.00,,,0.00,WUHU216HW,2013-06-22 14:14:00,
2013-06-22 10:20:00,76.3,66.7,30.30,NE,45,2.5,4.7,72,0.00,,,0.00,WUHU216HW,2013-06-22 14:20:00,
2013-06-22 10:25:00,76.5,66.1,30.30,ENE,68,4.0,4.0,70,0.00,,,0.00,WUHU216HW,2013-06-22 14:25:00,
2013-06-22 10:30:00,76.1,66.5,30.30,ENE,68,1.1,4.0,72,0.00,,,0.00,WUHU216HW,2013-06-22 14:30:00,
2013-06-22 10:35:00,76.9,67.1,30.30,NE,45,2.0,4.0,72,0.00,,,0.00,WUHU216HW,2013-06-22 14:35:00,
2013-06-22 10:40:00,77.0,67.0,30.30,NE,45,2.9,2.9,71,0.00,,,0.00,WUHU216HW,2013-06-22 14:40:00,
2013-06-22 10:45:00,77.6,67.5,30.30,East,90,2.7,2.9,71,0.00,,,0.00,WUHU216HW,2013-06-22 14:45:00,
2013-06-22 10:50:00,78.8,67.3,30.30,NE,45,3.6,3.6,68,0.00,,,0.00,WUHU216HW,2013-06-22 14:50:00,
2013-06-22 10:55:00,79.6,68.5,30.31,North,0,2.2,3.6,69,0.00,,,0.00,WUHU216HW,2013-06-22 14:55:00,
2013-06-22 11:00:00,79.2,67.7,30.30,WNW,293,1.0,3.6,68,0.00,,,0.00,WUHU216HW,2013-06-22 15:00:00,
2013-06-22 11:05:00,79.2,67.7,30.30,ESE,113,0.9,2.2,68,0.00,,,0.00,WUHU216HW,2013-06-22 15:05:00,
2013-06-22 11:10:00,79.6,66.8,30.30,ENE,68,4.7,4.7,65,0.00,,,0.00,WUHU216HW,2013-06-22 15:10:00,
2013-06-22 11:15:00,79.4,66.6,30.30,ENE,68,3.8,4.7,65,0.00,,,0.00,WUHU216HW,2013-06-22 15:15:00,
2013-06-22 11:20:00,79.7,66.5,30.30,NE,45,4.7,4.7,64,0.00,,,0.00,WUHU216HW,2013-06-22 15:20:00,
2013-06-22 11:25:00,80.3,67.0,30.30,NNE,23,4.0,4.7,64,0.00,,,0.00,WUHU216HW,2013-06-22 15:25:00,
2013-06-22 11:30:00,80.6,66.4,30.30,ESE,114,2.7,4.7,62,0.00,,,0.00,WUHU216HW,2013-06-22 15:30:00,
2013-06-22 11:35:00,81.0,66.8,30.30,SE,125,2.1,3.4,62,0.00,,,0.00,WUHU216HW,2013-06-22 15:35:00,
2013-06-22 11:40:00,81.0,66.8,30.30,NE,45,2.0,2.5,62,0.00,,,0.00,WUHU216HW,2013-06-22 15:40:00,
2013-06-22 11:45:00,81.2,66.0,30.30,North,0,2.2,2.2,60,0.00,,,0.00,WUHU216HW,2013-06-22 15:45:00,
2013-06-22 11:51:00,81.4,66.2,30.30,NNE,23,2.2,2.2,60,0.00,,,0.00,WUHU216HW,2013-06-22 15:51:00,
2013-06-22 11:55:00,81.9,66.2,30.30,North,0,3.4,3.4,59,0.00,,,0.00,WUHU216HW,2013-06-22 15:55:00,
2013-06-22 12:01:00,82.1,67.2,30.30,South,180,0.4,3.4,61,0.00,,,0.00,WUHU216HW,2013-06-22 16:01:00,
2013-06-22 12:06:00,82.3,66.0,30.29,NE,45,2.5,3.4,58,0.00,,,0.00,WUHU216HW,2013-06-22 16:06:00,
2013-06-22 12:11:00,82.6,67.3,30.29,NE,45,2.5,2.5,60,0.00,,,0.00,WUHU216HW,2013-06-22 16:11:00,
2013-06-22 12:16:00,82.1,66.3,30.30,NE,37,2.0,2.5,59,0.00,,,0.00,WUHU216HW,2013-06-22 16:16:00,
2013-06-22 12:21:00,82.1,65.3,30.29,North,0,3.4,3.4,57,0.00,,,0.00,WUHU216HW,2013-06-22 16:21:00,
2013-06-22 12:26:00,82.3,66.4,30.29,South,180,1.4,3.4,59,0.00,,,0.00,WUHU216HW,2013-06-22 16:26:00,
2013-06-22 12:31:00,83.5,68.7,30.29,NNE,23,0.4,3.4,61,0.00,,,0.00,WUHU216HW,2013-06-22 16:31:00,
2013-06-22 12:36:00,85.0,68.1,30.29,NE,45,1.6,1.6,57,0.00,,,0.00,WUHU216HW,2013-06-22 16:36:00,
2013-06-22 12:41:00,85.1,67.1,30.29,NNE,23,2.2,2.2,55,0.00,,,0.00,WUHU216HW,2013-06-22 16:41:00,
2013-06-22 12:46:00,85.0,68.1,30.29,East,90,1.8,2.2,57,0.00,,,0.00,WUHU216HW,2013-06-22 16:46:00,
2013-06-22 12:51:00,85.0,68.1,30.29,ENE,68,0.4,2.2,57,0.00,,,0.00,WUHU216HW,2013-06-22 16:51:00,
2013-06-22 12:56:00,84.6,67.1,30.28,NE,45,1.3,1.8,56,0.00,,,0.00,WUHU216HW,2013-06-22 16:56:00,
2013-06-22 13:01:00,85.5,68.5,30.28,SE,142,1.5,1.6,57,0.00,,,0.00,WUHU216HW,2013-06-22 17:01:00,
2013-06-22 13:06:00,85.9,67.8,30.28,NNE,23,1.3,1.6,55,0.00,,,0.00,WUHU216HW,2013-06-22 17:06:00,
2013-06-22 13:11:00,85.9,68.3,30.28,SE,135,0.9,1.3,56,0.00,,,0.00,WUHU216HW,2013-06-22 17:11:00,
2013-06-22 13:16:00,86.8,69.7,30.28,NW,315,0.9,1.3,57,0.00,,,0.00,WUHU216HW,2013-06-22 17:16:00,
2013-06-22 13:21:00,86.8,68.1,30.28,WSW,248,1.1,1.1,54,0.00,,,0.00,WUHU216HW,2013-06-22 17:21:00,
2013-06-22 13:26:00,86.9,68.3,30.28,ESE,113,1.8,1.8,54,0.00,,,0.00,WUHU216HW,2013-06-22 17:26:00,
2013-06-22 13:31:00,86.9,67.8,30.28,SE,132,1.4,1.8,53,0.00,,,0.00,WUHU216HW,2013-06-22 17:31:00,
2013-06-22 13:36:00,85.5,67.0,30.28,SSE,158,0.4,1.8,54,0.00,,,0.00,WUHU216HW,2013-06-22 17:36:00,
2013-06-22 13:41:00,85.3,67.9,30.28,North,0,1.1,1.1,56,0.00,,,0.00,WUHU216HW,2013-06-22 17:41:00,
2013-06-22 13:46:00,85.9,67.8,30.28,SSE,158,0.4,1.1,55,0.00,,,0.00,WUHU216HW,2013-06-22 17:46:00,
2013-06-22 13:52:00,87.7,68.4,30.28,NNW,328,1.1,1.8,53,0.00,,,0.00,WUHU216HW,2013-06-22 17:52:00,
2013-06-22 13:56:00,87.8,68.6,30.28,SE,135,1.6,1.8,53,0.00,,,0.00,WUHU216HW,2013-06-22 17:56:00,
2013-06-22 14:01:00,87.5,68.8,30.28,SE,135,2.5,2.5,54,0.00,,,0.00,WUHU216HW,2013-06-22 18:01:00,
2013-06-22 14:07:00,87.5,69.3,30.27,SE,135,3.8,3.8,55,0.00,,,0.00,WUHU216HW,2013-06-22 18:07:00,
2013-06-22 14:12:00,88.2,70.0,30.28,SW,227,3.1,3.8,55,0.00,,,0.00,WUHU216HW,2013-06-22 18:12:00,
2013-06-22 14:17:00,88.0,68.2,30.27,NE,45,0.9,3.8,52,0.00,,,0.00,WUHU216HW,2013-06-22 18:17:00,
2013-06-22 14:22:00,87.5,68.2,30.27,SW,225,0.7,2.9,53,0.00,,,0.00,WUHU216HW,2013-06-22 18:22:00,
2013-06-22 14:27:00,86.8,67.1,30.27,NNE,23,2.2,2.2,52,0.00,,,0.00,WUHU216HW,2013-06-22 18:27:00,
2013-06-22 14:32:00,86.6,68.5,30.27,SE,135,1.6,2.2,55,0.00,,,0.00,WUHU216HW,2013-06-22 18:32:00,
2013-06-22 14:37:00,87.1,68.9,30.27,ENE,57,1.2,2.2,55,0.00,,,0.00,WUHU216HW,2013-06-22 18:37:00,
2013-06-22 14:42:00,87.1,68.0,30.26,West,270,0.7,1.6,53,0.00,,,0.00,WUHU216HW,2013-06-22 18:42:00,
2013-06-22 14:47:00,87.3,68.0,30.26,South,180,0.9,1.1,53,0.00,,,0.00,WUHU216HW,2013-06-22 18:47:00,
2013-06-22 14:52:00,87.8,69.1,30.26,SE,135,4.3,4.3,54,0.00,,,0.00,WUHU216HW,2013-06-22 18:52:00,
2013-06-22 14:57:00,87.8,69.1,30.26,WSW,248,2.5,4.3,54,0.00,,,0.00,WUHU216HW,2013-06-22 18:57:00,
2013-06-22 15:02:00,87.8,69.1,30.25,WSW,239,2.2,4.3,54,0.00,,,0.00,WUHU216HW,2013-06-22 19:02:00,
2013-06-22 15:07:00,88.6,70.3,30.25,South,180,2.0,2.5,55,0.00,,,0.00,WUHU216HW,2013-06-22 19:07:00,
2013-06-22 15:12:00,89.3,69.8,30.25,SE,135,2.5,2.5,53,0.00,,,0.00,WUHU216HW,2013-06-22 19:12:00,
2013-06-22 15:17:00,89.5,68.4,30.25,SSE,158,1.1,2.5,50,0.00,,,0.00,WUHU216HW,2013-06-22 19:17:00,
2013-06-22 15:22:00,88.0,68.2,30.25,East,90,1.1,2.5,52,0.00,,,0.00,WUHU216HW,2013-06-22 19:22:00,
2013-06-22 15:27:00,86.9,66.7,30.24,ENE,68,1.3,1.3,51,0.00,,,0.00,WUHU216HW,2013-06-22 19:27:00,
2013-06-22 15:32:00,86.0,66.9,30.24,SSE,158,0.7,1.3,53,0.00,,,0.00,WUHU216HW,2013-06-22 19:32:00,
2013-06-22 15:38:00,86.2,67.6,30.24,WSW,248,2.5,2.5,54,0.00,,,0.00,WUHU216HW,2013-06-22 19:38:00,
2013-06-22 15:43:00,87.8,68.0,30.24,South,180,3.1,3.1,52,0.00,,,0.00,WUHU216HW,2013-06-22 19:43:00,
2013-06-22 15:48:00,88.7,69.4,30.23,South,180,2.5,3.1,53,0.00,,,0.00,WUHU216HW,2013-06-22 19:48:00,
2013-06-22 15:53:00,88.9,69.6,30.23,ESE,113,0.4,3.1,53,0.00,,,0.00,WUHU216HW,2013-06-22 19:53:00,
2013-06-22 15:58:00,89.6,69.7,30.23,WSW,248,1.6,2.5,52,0.00,,,0.00,WUHU216HW,2013-06-22 19:58:00,
2013-06-22 16:03:00,89.6,66.6,30.23,NE,45,2.7,2.7,47,0.00,,,0.00,WUHU216HW,2013-06-22 20:03:00,
2013-06-22 16:08:00,88.9,66.7,30.23,North,0,0.4,2.7,48,0.00,,,0.00,WUHU216HW,2013-06-22 20:08:00,
2013-06-22 16:13:00,88.4,66.2,30.23,NNE,23,2.2,2.7,48,0.00,,,0.00,WUHU216HW,2013-06-22 20:13:00,
2013-06-22 16:18:00,88.7,67.8,30.22,South,180,1.8,2.5,50,0.00,,,0.00,WUHU216HW,2013-06-22 20:18:00,
2013-06-22 16:23:00,89.5,68.9,30.22,ENE,68,1.8,1.8,51,0.00,,,0.00,WUHU216HW,2013-06-22 20:23:00,
2013-06-22 16:28:00,89.8,69.3,30.22,SE,135,2.5,2.5,51,0.00,,,0.00,WUHU216HW,2013-06-22 20:28:00,
2013-06-22 16:33:00,90.2,69.0,30.22,SSE,158,2.0,2.5,50,0.00,,,0.00,WUHU216HW,2013-06-22 20:33:00,
2013-06-22 16:38:00,90.2,69.0,30.21,SE,131,2.0,2.5,50,0.00,,,0.00,WUHU216HW,2013-06-22 20:38:00,
2013-06-22 16:43:00,89.3,67.6,30.22,ENE,68,0.8,2.2,49,0.00,,,0.00,WUHU216HW,2013-06-22 20:43:00,
2013-06-22 16:48:00,88.2,67.3,30.21,ENE,68,0.2,1.1,50,0.00,,,0.00,WUHU216HW,2013-06-22 20:48:00,
2013-06-22 16:54:00,87.5,67.1,30.21,SE,135,0.4,0.7,51,0.00,,,0.00,WUHU216HW,2013-06-22 20:54:00,
2013-06-22 16:59:00,87.5,68.2,30.21,ESE,113,0.7,0.7,53,0.00,,,0.00,WUHU216HW,2013-06-22 20:59:00,
2013-06-22 17:04:00,87.7,68.4,30.21,ESE,113,1.1,1.1,53,0.00,,,0.00,WUHU216HW,2013-06-22 21:04:00,
2013-06-22 17:09:00,87.8,68.0,30.20,ESE,113,1.1,1.1,52,0.00,,,0.00,WUHU216HW,2013-06-22 21:09:00,
2013-06-22 17:14:00,87.1,67.4,30.20,NE,45,0.4,1.1,52,0.00,,,0.00,WUHU216HW,2013-06-22 21:14:00,
2013-06-22 17:19:00,86.0,67.4,30.20,NE,45,0.4,0.4,54,0.00,,,0.00,WUHU216HW,2013-06-22 21:19:00,
2013-06-22 17:24:00,85.3,66.8,30.20,ENE,68,0.4,0.4,54,0.00,,,0.00,WUHU216HW,2013-06-22 21:24:00,
2013-06-22 17:29:00,84.6,66.2,30.20,ESE,113,0.4,0.4,54,0.00,,,0.00,WUHU216HW,2013-06-22 21:29:00,
2013-06-22 17:34:00,84.8,67.3,30.20,South,180,0.2,0.4,56,0.00,,,0.00,WUHU216HW,2013-06-22 21:34:00,
2013-06-22 17:39:00,86.0,68.5,30.20,SSE,158,0.9,0.9,56,0.00,,,0.00,WUHU216HW,2013-06-22 21:39:00,
2013-06-22 17:44:00,86.8,67.6,30.20,SE,142,0.8,0.9,53,0.00,,,0.00,WUHU216HW,2013-06-22 21:44:00,
2013-06-22 17:49:00,86.8,67.6,30.20,SE,135,0.4,0.9,53,0.00,,,0.00,WUHU216HW,2013-06-22 21:49:00,
2013-06-22 17:55:00,86.9,68.3,30.20,SE,135,1.1,1.1,54,0.00,,,0.00,WUHU216HW,2013-06-22 21:55:00,
2013-06-22 18:00:00,86.6,68.0,30.20,SE,135,0.0,1.1,54,0.00,,,0.00,WUHU216HW,2013-06-22 22:00:00,
2013-06-22 18:05:00,85.7,67.6,30.20,NNE,23,0.0,1.1,55,0.00,,,0.00,WUHU216HW,2013-06-22 22:05:00,
2013-06-22 18:10:00,85.3,67.9,30.20,East,90,0.0,0.0,56,0.00,,,0.00,WUHU216HW,2013-06-22 22:10:00,
2013-06-22 18:15:00,85.0,68.1,30.20,East,90,0.0,0.0,57,0.00,,,0.00,WUHU216HW,2013-06-22 22:15:00,
2013-06-22 18:20:00,84.6,67.7,30.20,East,90,0.0,0.0,57,0.00,,,0.00,WUHU216HW,2013-06-22 22:20:00,
2013-06-22 18:25:00,84.2,67.9,30.20,East,90,0.0,0.0,58,0.00,,,0.00,WUHU216HW,2013-06-22 22:25:00,
2013-06-22 18:30:00,83.7,67.3,30.20,East,90,0.0,0.0,58,0.00,,,0.00,WUHU216HW,2013-06-22 22:30:00,
2013-06-22 18:35:00,85.0,69.0,30.20,East,90,0.0,0.0,59,0.00,,,0.00,WUHU216HW,2013-06-22 22:35:00,
2013-06-22 18:40:00,85.3,68.3,30.20,East,90,0.0,0.0,57,0.00,,,0.00,WUHU216HW,2013-06-22 22:40:00,
2013-06-22 18:45:00,85.7,68.1,30.20,East,90,0.0,0.0,56,0.00,,,0.00,WUHU216HW,2013-06-22 22:45:00,
2013-06-22 18:50:00,86.4,68.9,30.20,NE,45,0.0,0.0,56,0.00,,,0.00,WUHU216HW,2013-06-22 22:50:00,
2013-06-22 18:55:00,86.9,67.8,30.20,NNE,23,0.7,0.7,53,0.00,,,0.00,WUHU216HW,2013-06-22 22:55:00,
2013-06-22 19:01:00,86.8,67.6,30.20,NNE,30,0.4,0.7,53,0.00,,,0.00,WUHU216HW,2013-06-22 23:01:00,
2013-06-22 19:06:00,87.1,68.0,30.20,SSE,158,0.9,0.9,53,0.00,,,0.00,WUHU216HW,2013-06-22 23:06:00,
2013-06-22 19:11:00,88.6,69.2,30.20,ESE,122,0.5,0.9,53,0.00,,,0.00,WUHU216HW,2013-06-22 23:11:00,
2013-06-22 19:16:00,93.6,71.6,30.20,ESE,113,0.0,0.9,49,0.00,,,0.00,WUHU216HW,2013-06-22 23:16:00,
2013-06-22 19:21:00,96.7,72.5,30.20,ESE,113,0.2,0.4,46,0.00,,,0.00,WUHU216HW,2013-06-22 23:21:00,
2013-06-22 19:26:00,97.6,71.9,30.20,ESE,113,0.2,0.2,44,0.00,,,0.00,WUHU216HW,2013-06-22 23:26:00,
2013-06-22 19:31:00,98.5,72.7,30.20,ESE,113,0.0,0.2,44,0.00,,,0.00,WUHU216HW,2013-06-22 23:31:00,
2013-06-22 19:36:00,99.5,72.4,30.20,ESE,113,0.9,0.9,42,0.00,,,0.00,WUHU216HW,2013-06-22 23:36:00,
2013-06-22 19:41:00,98.5,71.4,30.20,East,90,0.0,0.9,42,0.00,,,0.00,WUHU216HW,2013-06-22 23:41:00,
2013-06-22 19:46:00,93.8,68.4,30.20,NE,45,0.0,0.0,44,0.00,,,0.00,WUHU216HW,2013-06-22 23:46:00,
2013-06-22 19:51:00,90.0,67.0,30.20,NE,45,0.0,0.0,47,0.00,,,0.00,WUHU216HW,2013-06-22 23:51:00,
2013-06-22 19:56:00,87.1,66.3,30.20,NE,45,0.0,0.0,50,0.00,,,0.00,WUHU216HW,2013-06-22 23:56:00,
2013-06-22 20:01:00,85.1,66.1,30.20,ENE,68,0.0,0.0,53,0.00,,,0.00,WUHU216HW,2013-06-23 00:01:00,
2013-06-22 20:06:00,84.1,65.6,30.20,ENE,68,0.0,0.0,54,0.00,,,0.00,WUHU216HW,2013-06-23 00:06:00,
2013-06-22 20:11:00,83.2,65.3,30.20,SE,135,0.0,0.0,55,0.00,,,0.00,WUHU216HW,2013-06-23 00:11:00,
2013-06-22 20:16:00,82.4,65.1,30.19,East,90,0.0,0.0,56,0.00,,,0.00,WUHU216HW,2013-06-23 00:16:00,
2013-06-22 20:21:00,82.4,65.1,30.20,East,90,0.0,0.0,56,0.00,,,0.00,WUHU216HW,2013-06-23 00:21:00,
2013-06-22 20:26:00,79.9,64.4,30.19,NNW,338,0.0,0.0,59,0.00,,,0.00,WUHU216HW,2013-06-23 00:26:00,
2013-06-22 20:32:00,79.6,64.5,30.20,NNW,338,0.0,0.0,60,0.00,,,0.00,WUHU216HW,2013-06-23 00:32:00,
2013-06-22 20:37:00,79.0,64.5,30.19,NNW,338,0.0,0.0,61,0.00,,,0.00,WUHU216HW,2013-06-23 00:37:00,
2013-06-22 20:42:00,77.9,64.4,30.19,NNW,338,0.0,0.0,63,0.00,,,0.00,WUHU216HW,2013-06-23 00:42:00,
2013-06-22 20:47:00,77.6,64.5,30.19,NNW,338,0.0,0.0,64,0.00,,,0.00,WUHU216HW,2013-06-23 00:47:00,
2013-06-22 20:52:00,77.0,63.9,30.20,NNW,338,0.0,0.0,64,0.00,,,0.00,WUHU216HW,2013-06-23 00:52:00,
2013-06-22 20:57:00,76.7,64.0,30.20,NNW,338,0.0,0.0,65,0.00,,,0.00,WUHU216HW,2013-06-23 00:57:00,
2013-06-22 21:02:00,76.0,63.7,30.20,NNW,338,0.0,0.0,66,0.00,,,0.00,WUHU216HW,2013-06-23 01:02:00,
2013-06-22 21:07:00,75.6,63.8,30.20,NNW,338,0.0,0.0,67,0.00,,,0.00,WUHU216HW,2013-06-23 01:07:00,
2013-06-22 21:12:00,75.1,63.8,30.20,NNW,338,0.0,0.0,68,0.00,,,0.00,WUHU216HW,2013-06-23 01:12:00,
2013-06-22 21:17:00,74.7,63.9,30.20,NNW,338,0.0,0.0,69,0.00,,,0.00,WUHU216HW,2013-06-23 01:17:00,
2013-06-22 21:22:00,74.5,64.2,30.21,NNW,338,0.0,0.0,70,0.00,,,0.00,WUHU216HW,2013-06-23 01:22:00,
2013-06-22 21:27:00,74.0,64.1,30.21,NNE,23,0.5,0.7,71,0.00,,,0.00,WUHU216HW,2013-06-23 01:27:00,
2013-06-22 21:32:00,73.8,64.3,30.21,NNE,23,1.1,1.1,72,0.00,,,0.00,WUHU216HW,2013-06-23 01:32:00,
2013-06-22 21:37:00,73.8,64.3,30.22,NNE,23,0.4,1.1,72,0.00,,,0.00,WUHU216HW,2013-06-23 01:37:00,
2013-06-22 21:42:00,73.6,64.1,30.22,North,0,0.7,1.1,72,0.00,,,0.00,WUHU216HW,2013-06-23 01:42:00,
2013-06-22 21:47:00,73.3,64.2,30.23,NNE,23,1.1,1.1,73,0.00,,,0.00,WUHU216HW,2013-06-23 01:47:00,
2013-06-22 21:52:00,73.1,64.4,30.23,NNE,23,0.9,1.1,74,0.00,,,0.00,WUHU216HW,2013-06-23 01:52:00,
2013-06-22 21:58:00,73.1,64.4,30.23,NNE,23,0.7,1.1,74,0.00,,,0.00,WUHU216HW,2013-06-23 01:58:00,
2013-06-22 22:03:00,72.9,64.5,30.23,NNE,23,0.7,0.9,75,0.00,,,0.00,WUHU216HW,2013-06-23 02:03:00,
2013-06-22 22:08:00,72.7,64.4,30.23,NNE,23,0.0,0.7,75,0.00,,,0.00,WUHU216HW,2013-06-23 02:08:00,
2013-06-22 22:13:00,72.5,64.2,30.23,North,0,0.0,0.0,75,0.00,,,0.00,WUHU216HW,2013-06-23 02:13:00,
2013-06-22 22:18:00,72.4,64.0,30.23,North,0,0.0,0.0,75,0.00,,,0.00,WUHU216HW,2013-06-23 02:18:00,
2013-06-22 22:23:00,72.2,63.8,30.23,North,0,0.7,0.7,75,0.00,,,0.00,WUHU216HW,2013-06-23 02:23:00,
2013-06-22 22:28:00,71.8,63.5,30.23,NNE,23,0.0,0.7,75,0.00,,,0.00,WUHU216HW,2013-06-23 02:28:00,
2013-06-22 22:33:00,71.6,63.3,30.23,NNE,23,0.0,0.7,75,0.00,,,0.00,WUHU216HW,2013-06-23 02:33:00,
2013-06-22 22:38:00,71.6,63.3,30.24,NNE,23,0.0,0.0,75,0.00,,,0.00,WUHU216HW,2013-06-23 02:38:00,
2013-06-22 22:43:00,71.3,63.3,30.23,NNE,23,0.0,0.0,76,0.00,,,0.00,WUHU216HW,2013-06-23 02:43:00,
2013-06-22 22:48:00,70.9,63.3,30.23,SSE,158,0.2,0.2,77,0.00,,,0.00,WUHU216HW,2013-06-23 02:48:00,
2013-06-22 22:54:00,70.7,63.1,30.23,SSE,158,0.2,0.2,77,0.00,,,0.00,WUHU216HW,2013-06-23 02:54:00,
2013-06-22 22:59:00,70.6,63.4,30.23,NE,45,0.2,0.2,78,0.00,,,0.00,WUHU216HW,2013-06-23 02:59:00,
2013-06-22 23:04:00,70.2,63.4,30.23,NE,45,0.4,0.4,79,0.00,,,0.00,WUHU216HW,2013-06-23 03:04:00,
2013-06-22 23:09:00,70.2,63.4,30.23,NE,45,0.0,0.4,79,0.00,,,0.00,WUHU216HW,2013-06-23 03:09:00,
2013-06-22 23:14:00,70.2,63.4,30.24,NE,45,0.0,0.0,79,0.00,,,0.00,WUHU216HW,2013-06-23 03:14:00,
2013-06-22 23:19:00,70.0,63.2,30.24,SW,225,0.0,0.0,79,0.00,,,0.00,WUHU216HW,2013-06-23 03:19:00,
2013-06-22 23:24:00,69.8,63.0,30.24,SW,225,0.0,0.0,79,0.00,,,0.00,WUHU216HW,2013-06-23 03:24:00,
2013-06-22 23:29:00,69.7,62.8,30.25,SW,225,0.0,0.0,79,0.00,,,0.00,WUHU216HW,2013-06-23 03:29:00,
2013-06-22 23:34:00,69.5,62.6,30.24,SW,225,0.0,0.0,79,0.00,,,0.00,WUHU216HW,2013-06-23 03:34:00,
2013-06-22 23:39:00,69.5,63.0,30.24,SW,225,0.0,0.0,80,0.00,,,0.00,WUHU216HW,2013-06-23 03:39:00,
2013-06-22 23:44:00,69.5,63.0,30.24,WSW,248,0.0,0.0,80,0.00,,,0.00,WUHU216HW,2013-06-23 03:44:00,
2013-06-22 23:49:00,69.5,63.0,30.24,WSW,248,0.0,0.0,80,0.00,,,0.00,WUHU216HW,2013-06-23 03:49:00,
2013-06-22 23:54:00,69.3,62.9,30.24,WSW,248,0.0,0.0,80,0.00,,,0.00,WUHU216HW,2013-06-23 03:54:00,
2013-06-22 23:59:00,69.3,63.2,30.24,NW,315,0.0,0.0,81,0.00,,,0.00,WUHU216HW,2013-06-23 03:59:00,